www.pogodaiklimat.ru

Погода и климат >> Архив погоды >> Аргентина >> San Miguel de Tucuman


ПОГОДА в San Miguel de Tucuman

  • Прогноз погоды в San Miguel de Tucuman
  • Монитор погоды в San Miguel de Tucuman
  • Климат города

АРХИВ ПОГОДЫ в San Miguel de Tucuman

Время (UTC), дата Ветер
(напр.,м/с)
 
Видим.   Явления Облачность Т
(С)
Тd
(С)
f
(%)
Тe
(С)
Тes
(С)
Комфортность P
(гПа)
Po
(гПа)
Тmin
(С)
Tmax
(С)
R
(мм)
R24
(мм)
S
(см)
00 14.11 З 2 12 км дым 10/5 1200 м
[Sc Ac As]
+18.5 +15.0 80 +20 +20 1012.2 961.0 +18.5 +21.2
03 14.11 С 2 12 км 10/10 1050 м
[Sc]
+19.2 +13.8 71 +21 +21 комфорт 1013.6 962.5
06 14.11 С 5 12 км 10/10 1050 м
[Sc]
+18.4 +12.9 70 +18 +18 1012.8 961.8
09 14.11 С 5 12 км 3/3 1200 м
[Sc]
+16.4 +12.5 78 +15 +15 1012.2 961.0
12 14.11 З 3 15 км 8/0
[Ac trans]
+20.0 +10.3 54 +22 +24 комфорт 1015.0 963.8 +16.2 +20.0
15 14.11 ЮВ 3 15 км 8/0
[Ac trans]
+25.5 +10.4 39 +26 +36 жарко 1014.2 963.4
18 14.11 В 5 15 км 3/0
[Ac trans]
+28.7 +7.3 26 +28 +37 жарко 1010.8 960.5
21 14.11 СВ 7 15 км ясно +29.4 +8.2 27 +29 +30 жарко 1008.2 957.8
00 15.11 С 3 12 км ясно +21.8 +10.9 50 +24 +24 комфорт 1010.0 959.3 +20.0 +29.4
03 15.11 С 3 15 км ясно +18.7 +12.1 65 +20 +20 1010.9 960.2
06 15.11 С 4 15 км ясно +17.0 +10.9 67 +17 +17 1008.7 958.4
09 15.11 С 6 15 км ясно +15.4 +11.1 76 +14 +14 1008.1 957.8
12 15.11 СВ 3 15 км ясно +21.2 +12.3 57 +23 +28 комфорт 1009.1 958.6 +15.0 +21.8
15 15.11 З 2 15 км ясно +28.0 +12.6 39 +29 +51 опасность
солнечного
удара
1006.8 956.6
18 15.11 штиль 0 15 км ясно +33.2 +16.9 38 +36 +62 опасность
солнечного
удара
1002.9 953.3
21 15.11 З 5 15 км ясно +31.0 +17.2 44 +35 +37 очень
душно
1001.6 951.7
00 16.11 З 2 15 км ясно +26.4 +16.7 55 +30 +30 душно 1004.7 954.8 +21.2 +33.2
03 16.11 С 3 15 км ясно +22.9 +17.2 70 +28 +28 душно 1006.6 956.8
06 16.11 С 7 15 км ясно +24.0 +16.4 62 +27 +27 жарко 1005.7 956.5
09 16.11 С 3 15 км ясно +22.0 +16.6 71 +26 +26 душно 1007.8 958.1
12 16.11 З 4 15 км 1/0
[Ac trans]
+24.4 +17.2 64 +28 +32 душно 1011.0 961.0 +21.1 +26.4
15 16.11 Ю 2 10 км 1/0
[Ac trans]
+29.6 +18.6 52 +35 +55 опасность
солнечного
удара
1009.2 959.4
18 16.11 СВ 7 12 км 9/9 1050 м
[Cu Sc]
+33.9 +17.8 38 +38 +38 очень
душно
1004.9 955.8
21 16.11 СВ 9 12 км 5/5 1050 м
[Cu Sc]
+33.2 +17.3 39 +37 +37 очень
душно
1001.6 952.4
00 17.11 З 3 12 км 5/5 1350 м
[Sc]
+29.2 +19.0 54 +35 +35 очень
душно
1003.3 953.8 +24.4 +34.0
03 17.11 С 3 12 км 4/0
[Ac trans]
+23.4 +19.0 76 +30 +30 очень
душно
1004.1 954.6
06 17.11 С 3 10 км ясно +24.4 +18.9 71 +29 +29 душно 1002.4 953.4
09 17.11 С 2 10 км 4/0
[Ac trans]
+21.8 +18.2 80 +27 +27 душно 1001.9 952.6
12 17.11 С 5 12 км 9/0
[Ac As]
+26.2 +19.3 66 +32 +33 очень
душно
1002.9 953.7 +21.6 +29.2
15 17.11 Ю 2 12 км 9/0
[Ac As]
+32.6 +20.7 50 +40 +47 очень
душно
1001.9 952.8
18 17.11 Ю 3 12 км 9/0
[Ac As Cs]
+35.2 +20.6 43 +42 +52 опасность
перегрева
1000.2 951.4
21 17.11 З 5 12 км 8/8 600 м
[Cu Sc]
+34.2 +21.3 47 +42 +42 опасность
перегрева
999.2 950.2
00 18.11 Ю 2 12 км зарница 6/6 900 м
[Cb cap]
+28.8 +21.9 66 +37 +37 очень
душно
1002.2 953.0 +26.2 +36.0
03 18.11 В 8 5000 м слабый дождь туман 6/4 900 м
[Cb cap Ac As]
+26.0 +18.0 61 +30 +30 душно 1006.8 957.6
06 18.11 Ю 5 2500 м дождь {гроза} туман 10/5 300 м
[Frnb As op]
+21.2 +20.4 95 +26 +26 душно 1011.7 962.1 9
09 18.11 Ю 5 2500 м дождь {морось} туман 10/9 120 м
[Frnb As op]
+17.4 +16.8 96 +17 +17 1017.0 966.8
12 18.11 СВ 2 8000 м осадки на расстоянии {дождь, морось} 10/6 210 м
[Frnb As op]
+17.0 +12.5 75 +17 +18 1022.0 971.0 +16.2 +29.4 28
15 18.11 СЗ 4 12 км 10/6 1200 м
[Sc Ac As]
+21.0 +11.2 53 +23 +25 комфорт 1020.6 969.8
18 18.11 СЗ 2 12 км 9/4 1200 м
[Sc Ac As]
+22.2 +9.2 43 +24 +29 комфорт 1018.4 967.4
21 18.11 В 3 12 км 9/9 1200 м
[Sc]
+22.4 +8.5 41 +24 +24 комфорт 1016.7 965.4
00 19.11 С 3 12 км 4/4 1200 м
[Sc]
+20.0 +11.2 57 +22 +22 комфорт 1017.8 966.2 +17.0 +22.4
03 19.11 С 4 10 км 3/3 1200 м
[Sc]
+16.3 +12.6 79 +16 +16 1017.4 966.0
06 19.11 штиль 0 10 км ясно +14.0 +11.1 83 +14 +14 1014.4 963.0
09 19.11 С 4 12 км ясно +14.4 +10.3 76 +13 +13 1014.1 962.8
12 19.11 С 2 15 км ясно +19.6 +12.7 64 +22 +27 комфорт 1015.0 963.8 +13.4 +20.0
15 19.11 ЮВ 2 15 км ясно +24.6 +13.7 51 +27 +46 жарко 1013.1 962.2
18 19.11 В 3 15 км 1/1 1050 м
[Cu hum]
+29.6 +16.2 44 +33 +48 душно 1009.5 959.0
21 19.11 ЮЗ 4 15 км 3/3 1200 м
[Cu Sc]
+27.2 +16.8 53 +31 +33 душно 1008.0 957.4
00 20.11 С 1 10 км 8/1 1350 м
[Sc Ac trans]
+22.6 +17.6 73 +28 +28 душно 1010.3 959.6 +19.6 +29.9
03 20.11 С 3 12 км ясно +20.2 +16.7 80 +23 +23 комфорт 1010.7 960.2
06 20.11 С 6 12 км ясно +21.0 +16.2 74 +24 +24 комфорт 1007.9 958.0
09 20.11 С 4 12 км ясно +19.4 +16.2 82 +21 +21 комфорт 1009.5 959.2
12 20.11 З 2 15 км ясно +23.8 +17.7 69 +28 +34 душно 1011.3 960.9 +18.5 +23.8
15 20.11 В 3 15 км ясно +28.2 +17.8 53 +33 +49 очень
душно
1011.0 960.8
18 20.11 СВ 2 15 км 6/6 1200 м
[Cu hum]
+32.0 +18.5 45 +37 +44 очень
душно
1008.0 958.2

 

Местоположение метеостанции San Miguel de Tucuman (Аргентина): широта -26.85 долгота -65.09 высота над уровнем моря 450 м.

В архиве по умолчанию представлена погода в San Miguel de Tucuman за последнюю неделю. Архивные данные за месяц целиком и за предыдущие месяцы, начиная с января 2011 года, Вы можете получить, выбрав интересующий диапазон дат из раскрывающегося списка и нажав кнопку "Ввод!".


*Определитесь, кто Вы:
робот инопланетянин человек

Внимание! Время в таблицах - всемирное. Для получения местного времени необходимо прибавить поправку, которая в San Miguel de Tucuman равна -3 ч.

Смотрите также архив погоды в соседних городах и на ближайших метеорологических станциях:

Погода в Santiago del Estero (Аргентина) (128 км)
Погода в San Fernando del Valle de Catamarca (Аргентина) (206 км)
Погода в Salta (Аргентина) (226 км)
Погода в San Salvador de Jujuy (Аргентина) (275 км)
Погода в La Rioja (Аргентина) (328 км)
Погода в Villa de Maria del Rio Seco (Аргентина) (366 км)
Погода в Chamical (Аргентина) (407 км)
Погода в San Ramon de la Nueva Oran (Аргентина) (419 км)
Погода в Ceres (Аргентина) (456 км)
Погода в Presidencia Roque Saenz Pena (Аргентина) (458 км)

Пояснения к столбцам:

Ветер - указаны скорость ветра в м/с - средняя за 10 мин, порывы в срок и между сроками (в фигурных скобках) и направление, откуда дует ветер: С - северный, СВ - северо-восточный, В - восточный, ЮВ - юго-восточный, Ю - южный, ЮЗ - юго-западный, З - западный, СЗ - северо-западный.
Видимость - горизонтальная дальность видимости в метрах или километрах. При видимости от 1 до 10 км при отсутствии осадков обычно наблюдается дымка, при ухудшении видимости до 1 км и менее - туман. В сухую погоду видимость может ухудшаться дымом, пылью или мглою.
Явления - указаны атмосферные явления, наблюдавшиеся в срок или в последний час перед сроком; фигурными скобками обозначены явления, наблюдавшиеся между сроками (за 1-3 часа до срока); квадратными скобками обозначены град или гололедные отложения с указанием их диаметра в мм.
Облачность - указаны через наклонную черту общая и нижняя облачность в баллах и высота нижней границы облаков в метрах; квадратными скобками обозначены формы облаков: Ci - перистые, Cs - перисто-слоистые, Cc - перисто-кучевые, Ac - высококучевые, As - высокослоистые, Sc - слоисто-кучевые, Ns - слоисто-дождевые, Cu - кучевые, Cb - кучево-дождевые. Подробнее классификацию облаков см. в Атласе облаков (PDF).
T - Температура воздуха - температура, измеренная на высоте 2 м над землей.
Td - Температура точки росы - температура, при понижении до которой содержащийся в воздухе водяной пар достигнет насыщения.
f - Относительная влажность воздуха - влажноcть воздуха, измеренная на высоте 2 м над землей.
Te - Эффективная температура - температура, которую ощущает одетый по сезону человек в тени. Характеристика душности погоды. При расчете учитывается влияние влажности воздуха и скорости ветра на теплоощущения человека.
Tes - Эффективная температура на солнце - температура, которую ощущает человек, с поправкой на солнечный нагрев. Характеристика знойности погоды. Зависит от высоты солнца над горизонтом, облачности и скорости ветра. Ночью, в пасмурную погоду, а также при ветре 12 м/с и более поправка равна нулю.
P - Атмосферное давление - приведенное к уровню моря атмосферное давление.
Po - Атмосферное давление - измеренное на уровне метеостанции атмосферное давление.
Tmin - Минимальная температура - минимум температуры воздуха на высоте 2 м над землей.
Tmax - Максимальная температура - максимум температуры воздуха на высоте 2 м над землей.
R - Количество осадков - Количество выпавших осадков за период времени, мм. При наведении курсора мыши на число - период времени, за который выпало указанное количество осадков.
R24 - Количество осадков - Количество выпавших осадков за 24 часа, мм.
S - Снежный покров - Высота снежного покрова, см. При наведении курсора мыши на число - состояние снежного покрова и степень покрытия местности в баллах.